This is the latest recevied weather packets stored in our database for station/object K1JO. If no packets are shown the sender has not sent any weather packets the latest 10 day(s).
| Time | Temp. | Humidity | Pressure | Rain* | Wind** | Luminosity | Snow |
|---|---|---|---|---|---|---|---|
| 1778004655 | 21.11° C | 58% | 1001.4 hPa | 0 mm | - | 644 W/m² | - |
| 1778004351 | 20.56° C | 59% | 1001.5 hPa | 0 mm | - | 665 W/m² | - |
| 1778004049 | 20° C | 59% | 1001.5 hPa | 0 mm | - | 683 W/m² | - |
| 1778003744 | 20.56° C | 58% | 1001.5 hPa | 0 mm | - | 688 W/m² | - |
| 1778003441 | 20.56° C | 59% | 1001.6 hPa | 0 mm | - | 694 W/m² | - |
| 1778003138 | 20.56° C | 58% | 1001.9 hPa | 0 mm | - | 705 W/m² | - |
| 1778002833 | 21.11° C | 61% | 1001.7 hPa | 0 mm | - | 701 W/m² | - |
| 1778002530 | 20.56° C | 58% | 1001.9 hPa | 0 mm | - | 699 W/m² | - |
| 1778002227 | 20.56° C | 59% | 1001.7 hPa | 0 mm | - | 722 W/m² | - |
| 1778001925 | 21.11° C | 57% | 1001.8 hPa | 0 mm | - | 727 W/m² | - |
| 1778001621 | 20.56° C | 60% | 1002 hPa | 0 mm | - | 732 W/m² | - |
| 1778001317 | 20.56° C | 58% | 1001.9 hPa | 0 mm | - | 731 W/m² | - |
| 1778001014 | 20.56° C | 59% | 1002 hPa | 0 mm | - | 739 W/m² | - |
| 1778000710 | 20.56° C | 57% | 1002.1 hPa | 0 mm | - | 728 W/m² | - |
| 1778000406 | 21.11° C | 59% | 1002.2 hPa | 0 mm | - | 728 W/m² | - |
| 1778000102 | 21.11° C | 57% | 1002.2 hPa | 0 mm | - | 738 W/m² | - |
| 1777999797 | 21.67° C | 55% | 1002.1 hPa | 0 mm | - | 737 W/m² | - |
| 1777999494 | 21.11° C | 58% | 1002.2 hPa | 0 mm | - | 752 W/m² | - |
| 1777999192 | 21.11° C | 58% | 1002.5 hPa | 0 mm | - | 745 W/m² | - |
| 1777998890 | 21.11° C | 57% | 1002.5 hPa | 0 mm | - | 748 W/m² | - |
| 1777998590 | 21.11° C | 58% | 1002.7 hPa | 0 mm | - | 769 W/m² | - |
| 1777998285 | 21.67° C | 56% | 1002.6 hPa | 0 mm | - | 771 W/m² | - |
| 1777997982 | 21.11° C | 57% | 1002.9 hPa | 0 mm | - | 776 W/m² | - |
| 1777997678 | 21.11° C | 58% | 1002.9 hPa | 0 mm | - | 768 W/m² | - |
| 1777997376 | 21.11° C | 58% | 1003 hPa | 0 mm | - | 694 W/m² | - |
* Rain latest hour (hover to see other rain measurements)
** Current wind speed in m/s (hover to see current wind gust speed)